Regional Weather Roundup
Issued by NWS

Home | Current Version | Previous Version | Text Only | Print | Product List | Glossary On
Versions: 1 2 3 4 5 6 7 8 9 10 11 12 13 14 15 16 17 18 19 20 21 22 23 24 25 26 27 28 29 30 31 32 33 34 35 36 37 38 39 40 41 42 43 44 45 46 47 48 49 50
000
ASCA42 TJSJ 301811
RWRPR
PUERTO RICO/U.S. VIRGIN ISLANDS HOURLY WEATHER ROUNDUP
NATIONAL WEATHER SERVICE SAN JUAN PR
200 PM AST WED JUL 30 2014

PRZ001-004-301900-
PUERTO RICO

CITY           SKY/WX    TMP DP  RH WIND       PRES   REMARKS
SAN JUAN LMM   MOSUNNY   90  73  58 NE21      30.00F HX  98
MAYAGUEZ       PTSUNNY   91  70  49 W14       30.01F HX  97
AGUADILLA      PTSUNNY   82  73  74 NE8       30.03S
CEIBA          SUNNY     90  73  58 SE14      30.04F HX  98
$$

PRZ006-007-301900-
U.S. VIRGIN ISLANDS

CITY           SKY/WX    TMP DP  RH WIND       PRES   REMARKS
CHARLOTTE AMA  SUNNY     88  73  62 SE12      30.01F HX  96
CHRISTIANSTED  MOSUNNY   90  72  55 E10       30.02F HX  96
$$

HOURLY WEATHER ROUNDUP FOR THE NEWS MEDIA

CITY           SKY/WX    TMP DP  RH WIND       PRES   REMARKS
MIAMI          PTSUNNY   93  71  48 VRB3      29.98F HX 100
ORLANDO        FAIR      90  66  45 W7        29.97F HX  92
NEW YORK       FAIR      77  55  46 S12       30.01F
NEWARK         FAIR      80  47  31 NW10      30.01S
CHICAGO        FAIR      78  52  40 W8        30.03F
HARTFORD       FAIR      77  50  38 W5        29.98F
BOSTON         FAIR      76  50  40 CALM      29.98F
DALLAS         PTSUNNY   81  67  62 SE14      30.04F
PHILADELPHIA   FAIR      78  51  38 S9        30.03F


USA.gov is the U.S. government's official web portal to all federal, state and local government web resources and services.